TimeEDT,TemperatureF,Dew PointF,Humidity,Sea Level PressureIn,VisibilityMPH,Wind Direction,Wind SpeedMPH,Gust SpeedMPH,PrecipitationIn,Events,Conditions,WindDirDegrees,DateUTC
12:53 AM,28.0,10.9,49,30.29,10.0,NW,4.6,-,N/A,,Clear,310,2013-04-03 04:53:00
1:53 AM,26.1,10.9,53,30.31,10.0,Calm,Calm,-,N/A,,Clear,0,2013-04-03 05:53:00
2:53 AM,24.1,12.9,62,30.32,10.0,Calm,Calm,-,N/A,,Clear,0,2013-04-03 06:53:00
3:53 AM,23.0,12.9,65,30.32,10.0,Calm,Calm,-,N/A,,Clear,0,2013-04-03 07:53:00
4:53 AM,21.0,12.0,68,30.33,10.0,WSW,3.5,-,N/A,,Clear,250,2013-04-03 08:53:00
5:53 AM,21.0,12.0,68,30.35,10.0,Calm,Calm,-,N/A,,Clear,0,2013-04-03 09:53:00
6:53 AM,19.9,12.0,71,30.37,10.0,Calm,Calm,-,N/A,,Clear,0,2013-04-03 10:53:00
7:53 AM,21.0,12.9,71,30.38,10.0,Calm,Calm,-,N/A,,Clear,0,2013-04-03 11:53:00
8:53 AM,30.0,18.0,61,30.38,10.0,WNW,5.8,-,N/A,,Clear,300,2013-04-03 12:53:00
9:53 AM,36.0,19.9,52,30.41,10.0,NNW,17.3,21.9,N/A,,Clear,330,2013-04-03 13:53:00
10:53 AM,39.9,17.1,40,30.43,10.0,North,16.1,21.9,N/A,,Clear,350,2013-04-03 14:53:00
11:53 AM,39.9,12.0,32,30.44,10.0,NNW,12.7,18.4,N/A,,Clear,330,2013-04-03 15:53:00
12:53 PM,42.1,9.0,26,30.44,10.0,North,15.0,21.9,N/A,,Clear,350,2013-04-03 16:53:00
1:53 PM,43.0,3.9,20,30.43,10.0,NNW,11.5,-,N/A,,Clear,340,2013-04-03 17:53:00
2:53 PM,44.1,6.1,21,30.43,10.0,Variable,3.5,-,N/A,,Clear,0,2013-04-03 18:53:00
3:53 PM,45.0,8.1,22,30.41,10.0,Variable,5.8,-,N/A,,Clear,0,2013-04-03 19:53:00
4:53 PM,45.0,6.1,20,30.40,10.0,ENE,8.1,-,N/A,,Clear,60,2013-04-03 20:53:00
5:53 PM,46.9,6.1,19,30.39,10.0,North,10.4,-,N/A,,Clear,360,2013-04-03 21:53:00
6:53 PM,44.1,7.0,22,30.40,10.0,East,5.8,-,N/A,,Clear,90,2013-04-03 22:53:00
7:53 PM,39.9,9.0,28,30.39,10.0,East,3.5,-,N/A,,Clear,90,2013-04-03 23:53:00
8:53 PM,37.0,9.0,31,30.39,10.0,SE,3.5,-,N/A,,Clear,140,2013-04-04 00:53:00
9:53 PM,33.1,14.0,46,30.39,10.0,Calm,Calm,-,N/A,,Clear,0,2013-04-04 01:53:00
10:53 PM,32.0,12.9,45,30.39,10.0,ESE,5.8,-,N/A,,Clear,120,2013-04-04 02:53:00
11:53 PM,34.0,14.0,44,30.38,10.0,SE,5.8,-,N/A,,Clear,130,2013-04-04 03:53:00